Zurück zum Katalog

FENGYUN 1C DEB

AktivLEO
NORAD 30161·DEBRIS·🇨🇳 China

Gestartet May 10, 1999 von Taiyuan Satellite Launch Center

Loading…

Nächste Überflüge (nächste 24 Stunden)

TLE

AktuellSource: Space-Track

Epoche: Sep 14, 2026, 11:21 UTC

1 30161U 99025TS  26257.47299558  .00000818  00000-0  97535-3 0  9996
2 30161 100.5181 265.5369 0325597 311.5289 216.8800 13.50476429962806

Verfolge FENGYUN 1C DEB in Echtzeit mit AllMySat

Download on the App Store